This demonstration page uses our WeatherBlox Daily Observations layout. Learn more.

Left ArrowRight Arrow

Hourly Observations for December 12, 2017

Temp ( °F °C ) Dew Point ( °F °C ) Humidity (%) Winds ( mph kmh ) Pressure ( in mb ) Visibility ( mi km ) Precip ( " mm )
12:15 am 00:15 Partly Cloudy 41 5 32 undefined 70 70 SSW 5 7 29.85 1011 10 16 N/A
12:35 am 00:35 Partly Cloudy 39 4 32 undefined 75 75 S 3 6 29.83 1010 10 16 N/A
12:55 am 00:55 Partly Cloudy 39 4 32 undefined 75 75 SSW 3 6 29.83 1010 10 16 N/A
1:15 am 01:15 Partly Cloudy 39 4 32 undefined 75 75 S 5 7 29.80 1009 10 16 N/A
1:35 am 01:35 Partly Cloudy 41 5 32 undefined 70 70 S 6 9 29.77 1008 10 16 N/A
1:55 am 01:55 Clear 41 5 32 undefined 70 70 S 6 9 29.77 1008 10 16 N/A
2:15 am 02:15 Clear 41 5 32 undefined 70 70 S 6 9 29.77 1008 10 16 N/A
2:35 am 02:35 Clear 41 5 32 undefined 70 70 S 8 13 29.74 1007 10 16 N/A
2:55 am 02:55 Clear 39 4 32 undefined 75 75 S 7 11 29.74 1007 10 16 N/A
3:15 am 03:15 Clear 39 4 32 undefined 75 75 SSW 10 17 29.74 1007 10 16 N/A
3:35 am 03:35 Clear 39 4 32 undefined 75 75 S 9 15 29.71 1006 10 16 N/A
3:55 am 03:55 Partly Cloudy 39 4 32 undefined 75 75 SSW 9 15 29.71 1006 10 16 N/A
4:15 am 04:15 Partly Cloudy 39 4 32 undefined 75 75 SSW 8 13 29.68 1005 10 16 N/A
4:35 am 04:35 Partly Cloudy 39 4 32 undefined 75 75 S 7 11 29.68 1005 10 16 N/A
4:55 am 04:55 Clear 37 3 32 undefined 81 81 SSW 7 11 29.68 1005 10 16 N/A
5:15 am 05:15 Clear 37 3 32 undefined 81 81 S 8 13 29.65 1004 10 16 N/A
5:35 am 05:35 Clear 37 3 32 undefined 81 81 S 7 11 29.65 1004 10 16 N/A
5:55 am 05:55 Clear 37 3 32 undefined 81 81 SSW 5 7 29.65 1004 10 16 N/A
6:15 am 06:15 Clear 37 3 32 undefined 81 81 S 6 9 29.65 1004 10 16 N/A
6:35 am 06:35 Partly Cloudy 37 3 32 undefined 81 81 SSW 3 6 29.65 1004 10 16 N/A
6:55 am 06:55 Partly Cloudy 37 3 32 undefined 81 81 N N/A 29.65 1004 10 16 N/A
7:15 am 07:15 Partly Cloudy 37 3 32 undefined 81 81 N 3 6 29.65 1004 10 16 N/A
7:35 am 07:35 Partly Cloudy 37 3 32 undefined 81 81 N N/A 29.65 1004 10 16 N/A
7:55 am 07:55 Sunny 37 3 32 undefined 81 81 N N/A 29.65 1004 10 16 N/A
8:15 am 08:15 Partly Cloudy 37 3 32 undefined 81 81 SSW 3 6 29.65 1004 10 16 N/A
8:35 am 08:35 Mostly Cloudy 37 3 34 1 87 87 S 3 6 29.65 1004 10 16 N/A
8:55 am 08:55 Cloudy 37 3 34 1 87 87 N N/A 29.62 1003 10 16 N/A
9:15 am 09:15 Cloudy 39 4 34 1 81 81 N N/A 29.65 1004 10 16 N/A
9:35 am 09:35 Cloudy 39 4 34 1 81 81 WSW 3 6 29.62 1003 10 16 N/A
9:55 am 09:55 Cloudy 39 4 34 1 81 81 SW 5 7 29.62 1003 10 16 N/A
10:15 am 10:15 Cloudy 39 4 34 1 81 81 N N/A 29.62 1003 10 16 N/A
10:35 am 10:35 Cloudy 41 5 34 1 76 76 N N/A 29.62 1003 10 16 N/A
10:55 am 10:55 Cloudy 41 5 34 1 76 76 SSW 5 7 29.62 1003 10 16 N/A
11:15 am 11:15 Cloudy 43 6 34 1 71 71 WSW 6 9 29.56 1001 10 16 N/A
11:35 am 11:35 Cloudy 46 8 34 1 62 62 NW 22 35 29.56 1001 10 16 N/A
11:55 am 11:55 Partly Cloudy 46 8 32 undefined 57 57 WNW 21 33 29.56 1001 10 16 N/A
12:15 pm 12:15 Mostly Cloudy 46 8 32 undefined 57 57 NW 17 28 29.56 1001 10 16 N/A
12:35 pm 12:35 Mostly Cloudy 46 8 32 undefined 57 57 NW 20 31 29.56 1001 10 16 N/A
12:55 pm 12:55 Mostly Cloudy 46 8 32 undefined 57 57 NW 23 37 29.53 1000 10 16 N/A
1:15 pm 13:15 Partly Cloudy 45 7 32 undefined 61 61 NW 26 43 29.53 1000 10 16 N/A
1:35 pm 13:35 Mostly Cloudy 45 7 32 undefined 61 61 WNW 17 28 29.53 1000 10 16 N/A
1:55 pm 13:55 Cloudy 43 6 32 undefined 66 66 NW 18 30 29.56 1001 10 16 N/A
2:15 pm 14:15 Cloudy 43 6 32 undefined 66 66 NW 17 28 29.56 1001 10 16 N/A
2:35 pm 14:35 Mostly Cloudy 43 6 32 undefined 66 66 NW 21 33 29.56 1001 10 16 N/A
2:55 pm 14:55 Partly Cloudy 43 6 30 -1 61 61 NW 17 28 29.56 1001 10 16 N/A
3:15 pm 15:15 Mostly Cloudy 43 6 30 -1 61 61 NW 20 31 29.56 1001 10 16 N/A
3:35 pm 15:35 Cloudy 39 4 27 -3 61 61 NW 22 35 29.62 1003 10 16 N/A
3:55 pm 15:55 Cloudy 39 4 27 -3 61 61 NNW 18 30 29.62 1003 10 16 N/A
4:15 pm 16:15 Cloudy 39 4 25 -4 56 56 NW 14 22 29.62 1003 10 16 N/A
4:35 pm 16:35 Mostly Cloudy 37 3 25 -4 60 60 NW 15 24 29.65 1004 10 16 N/A
4:55 pm 16:55 Partly Cloudy 37 3 23 -5 56 56 NW 29 46 29.62 1003 10 16 N/A
5:15 pm 17:15 Partly Cloudy 36 2 21 -6 56 56 NW 23 37 29.65 1004 10 16 N/A
5:35 pm 17:35 Partly Cloudy 34 1 21 -6 60 60 NW 23 37 29.68 1005 10 16 N/A
5:55 pm 17:55 Clear 34 1 19 -7 56 56 NW 21 33 29.68 1005 10 16 N/A
6:15 pm 18:15 Clear 34 1 21 -6 60 60 NW 16 26 29.68 1005 10 16 N/A
6:35 pm 18:35 Mostly Cloudy 32 undefined 23 -5 69 69 NNW 30 48 29.71 1006 10 16 N/A
6:55 pm 18:55 Cloudy 32 undefined 23 -5 69 69 NW 16 26 29.74 1007 10 16 N/A
7:15 pm 19:15 Partly Cloudy 32 undefined 19 -7 60 60 NNW 17 28 29.74 1007 10 16 N/A
7:35 pm 19:35 Partly Cloudy 30 -1 14 -10 51 51 NNW 24 39 29.74 1007 10 16 N/A
7:55 pm 19:55 Clear 30 -1 12 -11 47 47 NW 23 37 29.74 1007 10 16 N/A
8:15 pm 20:15 Clear 28 -2 10 -12 47 47 NNW 26 43 29.74 1007 10 16 N/A
8:30 pm 20:30 Clear 28 -2 10 -12 47 47 NW 28 44 29.74 1007 10 16 N/A
8:55 pm 20:55 Clear 28 -2 10 -12 47 47 NW 22 35 29.77 1008 10 16 N/A
9:15 pm 21:15 Partly Cloudy 28 -2 12 -11 51 51 NNW 18 30 29.77 1008 10 16 N/A
9:35 pm 21:35 Partly Cloudy 27 -3 5 -15 39 39 NNW 26 43 29.77 1008 10 16 N/A
9:55 pm 21:55 Clear 27 -3 5 -15 39 39 NW 26 43 29.77 1008 10 16 N/A
10:10 pm 22:10 Clear 27 -3 5 -15 39 39 NW 24 39 29.77 1008 10 16 N/A
10:35 pm 22:35 Partly Cloudy 27 -3 5 -15 39 39 NW 16 26 29.77 1008 10 16 N/A
10:55 pm 22:55 Mostly Cloudy 27 -3 5 -15 39 39 NW 28 44 29.77 1008 10 16 N/A
11:15 pm 23:15 Cloudy 27 -3 5 -15 39 39 NW 21 33 29.77 1008 10 16 N/A
11:35 pm 23:35 Cloudy 27 -3 5 -15 39 39 NNW 20 31 29.77 1008 10 16 N/A
11:55 pm 23:55 Cloudy 25 -4 7 -14 46 46 NW 17 28 29.77 1008 10 16 N/A

Powered by AerisWeather